Home > Time Zones > World Clock > Weather > Russia > Ufa > Past weeks

Flag for Russia Weather past 2 weeks in Ufa, Russia

Now
72 °F

Partly sunny.


Feels Like: 75 °F
Forecast: 60 / 83 °F
Wind: 3 mph from West

Location: Ufa

Current Time: May 27, 2015 at 7:52:52 PM

Latest Report: May 27, 2015 at 7:30 PM


Visibility: N/A

Pressure: 30.04 "Hg

Humidity: 65%

Dew point: 59 °F

Location of UfaLocation

Historic Weather in Ufa — Graph

°F

Ufa temperature yesterday

Maximum temperature yesterday: 77 °F (at 5:00 PM)
Minimum temperature yesterday: 55 °F (at 4:30 AM)
Average temperature yesterday: 67 °F

Past Weeks' High & Low Weather Summary

 TemperatureHumidityPressure
High84 °F (May 27, 3:30 PM)100% (May 16, 12:30 AM)30.18 "Hg (May 16, 12:30 AM)
Low41 °F (May 19, 4:00 AM)27% (May 22, 5:00 PM)29.36 "Hg (May 17, 11:30 AM)
Average58 °F72%29.83 "Hg
* Reported May 12 6:00 PM — May 27 6:30 PM, Ufa, Weather by CustomWeather, © 2015

Note: Actual official high and low records may vary slightly from our data, if they occured in-between our weather recording intervals... More about our weather records

Advertising

Ufa weather history for previous 24 hours

 ConditionsComfort  
Time TempWeatherWind HumidityBarometerVisibility
6:30 PM
Wed, May 27
77 °FThunderstorms. Partly sunny.No wind57%30.04 "HgN/A
6:00 PM79 °FPartly sunny.1 mph45%30.04 "HgN/A
5:30 PM79 °FPartly sunny.3 mph45%30.04 "HgN/A
5:00 PM79 °FPartly sunny.3 mph51%30.04 "HgN/A
4:30 PM79 °FSprinkles. Partly sunny.8 mph48%30.04 "HgN/A
4:00 PM84 °FPartly sunny.10 mph35%30.04 "HgN/A
3:30 PM84 °FThunderstorms. Partly sunny.6 mph35%30.07 "HgN/A
3:00 PM82 °FBroken clouds.6 mph40%30.07 "HgN/A
2:30 PM82 °FBroken clouds.6 mph40%30.07 "HgN/A
2:00 PM82 °FPartly sunny.6 mph37%30.07 "HgN/A
1:30 PM81 °FPartly sunny.6 mph51%30.07 "HgN/A
1:00 PM81 °FBroken clouds.8 mph54%30.09 "HgN/A
12:30 PM79 °FBroken clouds.3 mph51%30.09 "HgN/A
12:00 PM79 °FBroken clouds.3 mph48%30.09 "HgN/A
11:30 AM77 °FPassing clouds.6 mph54%30.09 "HgN/A
11:00 AM75 °FSunny.1 mph54%30.09 "Hg10 mi
10:30 AM72 °FPassing clouds.3 mph65%30.09 "HgN/A
10:00 AM72 °FPassing clouds.3 mph61%30.09 "HgN/A
9:30 AM70 °FSunny.1 mph60%30.09 "Hg10 mi
8:30 AM64 °FSunny.1 mph73%30.09 "Hg10 mi
8:00 AM63 °FPassing clouds.3 mph73%30.09 "HgN/A
7:30 AM61 °FSunny.1 mph77%30.09 "Hg10 mi
7:00 AM59 °FSunny.1 mph82%30.09 "Hg10 mi
6:30 AM57 °FClear.3 mph88%30.09 "Hg10 mi
6:00 AM57 °FClear.3 mph88%30.09 "Hg10 mi
5:30 AM57 °FPassing clouds.3 mph88%30.09 "HgN/A
5:00 AM57 °FClear.3 mph88%30.07 "Hg10 mi
4:30 AM57 °FPassing clouds.3 mph88%30.07 "HgN/A
4:00 AM57 °FClear.3 mph88%30.07 "Hg10 mi
3:30 AM57 °FClear.3 mph88%30.07 "Hg10 mi
3:00 AM57 °FClear.3 mph82%30.07 "Hg10 mi
2:30 AM57 °FClear.3 mph82%30.09 "Hg10 mi
1:30 AM59 °FClear.1 mph82%30.09 "Hg10 mi
1:00 AM63 °FClear.1 mph73%30.09 "Hg10 mi
12:30 AM64 °FClear.3 mph68%30.09 "Hg10 mi
12:00 AM64 °FClear.3 mph68%30.09 "Hg10 mi
11:30 PM
Tue, May 26
64 °FSunny.1 mph68%30.09 "Hg10 mi
11:00 PM64 °FSunny.1 mph68%30.09 "Hg10 mi
10:30 PM66 °FSunny.1 mph64%30.09 "Hg10 mi
10:00 PM68 °FPassing clouds.3 mph60%30.09 "HgN/A
9:30 PM70 °FSunny.1 mph53%30.09 "Hg10 mi
9:00 PM72 °FSunny.1 mph53%30.09 "Hg10 mi
8:30 PM73 °FSunny.1 mph47%30.09 "Hg10 mi
8:00 PM73 °FSunny.1 mph50%30.09 "Hg10 mi
7:30 PM73 °FPassing clouds.3 mph41%30.09 "HgN/A
7:00 PM75 °FSunny.1 mph47%30.09 "Hg10 mi
Weather by CustomWeather, © 2015

See weather overviewHow to use our weather pages